This is the latest recevied weather packets stored in our database for station/object W4ZHA. If no packets are shown the sender has not sent any weather packets the latest 10 day(s).
| Time | Temp. | Humidity | Pressure | Rain* | Wind** | Luminosity | Snow |
|---|---|---|---|---|---|---|---|
| 1777913845 | 23.33° C | 47% | 1016.1 hPa | 0 mm | - | 465 W/m² | - |
| 1777913541 | 23.89° C | 47% | 1016.1 hPa | 0 mm | - | 468 W/m² | - |
| 1777913238 | 23.89° C | 47% | 1016.1 hPa | 0 mm | - | 412 W/m² | - |
| 1777912935 | 22.78° C | 47% | 1016.5 hPa | 0 mm | - | 447 W/m² | - |
| 1777912631 | 23.33° C | 47% | 1016.5 hPa | 0 mm | - | 442 W/m² | - |
| 1777912327 | 23.89° C | 47% | 1016.8 hPa | 0 mm | - | 459 W/m² | - |
| 1777912023 | 23.33° C | 47% | 1016.5 hPa | 0 mm | - | 450 W/m² | - |
| 1777911719 | 23.33° C | 47% | 1016.5 hPa | 0 mm | - | 443 W/m² | - |
| 1777911416 | 22.78° C | 49% | 1016.8 hPa | 0 mm | - | 440 W/m² | - |
| 1777911113 | 22.78° C | 49% | 1016.8 hPa | 0 mm | - | 439 W/m² | - |
| 1777910811 | 22.22° C | 49% | 1017.2 hPa | 0 mm | - | 428 W/m² | - |
| 1777910507 | 21.67° C | 51% | 1017.2 hPa | 0 mm | - | 427 W/m² | - |
| 1777910204 | 21.67° C | 50% | 1017.2 hPa | 0 mm | - | 420 W/m² | - |
| 1777909901 | 21.67° C | 51% | 1017.2 hPa | 0 mm | - | 411 W/m² | - |
| 1777909598 | 20.56° C | 52% | 1017.2 hPa | 0 mm | - | 402 W/m² | - |
| 1777909295 | 21.11° C | 55% | 1017.2 hPa | 0 mm | - | 390 W/m² | - |
| 1777908993 | 21.11° C | 56% | 1017.2 hPa | 0 mm | - | 193 W/m² | - |
| 1777908691 | 20° C | 56% | 1017.6 hPa | 0 mm | - | 278 W/m² | - |
| 1777908387 | 20.56° C | 56% | 1017.6 hPa | 0 mm | - | 68 W/m² | - |
| 1777908084 | 20.56° C | 57% | 1017.2 hPa | 0 mm | - | 344 W/m² | - |
| 1777907780 | 20° C | 58% | 1017.6 hPa | 0 mm | - | 363 W/m² | - |
| 1777907475 | 18.89° C | 58% | 1017.6 hPa | 0 mm | - | 337 W/m² | - |
| 1777907172 | 18.89° C | 58% | 1017.9 hPa | 0 mm | - | 153 W/m² | - |
| 1777906869 | 18.33° C | 58% | 1017.9 hPa | 0 mm | - | 111 W/m² | - |
| 1777906567 | 17.78° C | 56% | 1017.9 hPa | 0 mm | - | 129 W/m² | - |
* Rain latest hour (hover to see other rain measurements)
** Current wind speed in m/s (hover to see current wind gust speed)